User: anonymous   Login
Location: Irma
(52.9170°N, 111.2330°W)
Time: 19:42:58
(UTC-07:00)
Language:

Meteor 1-24 Rocket - Orbit

View from above orbital plane
View from above orbital plane
View from above satellite
View from above satellite

Ground track
Ground track

The orbit data is extracted from the following two-line orbital elements,

1 08800U 76032B   14351.19430351  .00000114  00000-0  55964-4 0  1861
2 08800 081.2507 025.4565 0094172 250.1142 171.4858 14.09992645989522
Epoch (UTC): 17 December 2014 04:39:47
Eccentricity: 0.0094172
inclination: 81.2507°
perigee height: 791 km
apogee height: 927 km
right ascension of ascending node: 25.4565°
argument of perigee: 250.1142°
revolutions per day: 14.09992645
mean anomaly at epoch: 171.4858°
orbit number at epoch: 98952

The dashed part of the orbit path shows where the satellite is in the earth's shadow,  

DLR